Flag for Japan Weather past 2 weeks in Fukushima, Japan

Now
44 °F

Fog.


Feels Like: 44 °F
Forecast: 36 / 62 °F
Wind: No wind

Location: Wakamatsu

Current Time: Mar 30, 2015 at 8:21:50 AM

Latest Report: Mar 30, 2015 at 7:00 AM


Visibility: 4 mi

Pressure: 30.12 "Hg

Humidity: 99%

Dew point: 43 °F

Location of FukushimaLocation

Historic Weather in Fukushima — Graph

°F

Fukushima temperature yesterday

Maximum temperature yesterday: 61 °F (at 3:00 PM)
Minimum temperature yesterday: 34 °F (at 4:00 AM)
Average temperature yesterday: 47 °F

Past Weeks' High & Low Weather Summary

 TemperatureHumidityPressure
High64 °F (Mar 28, 3:00 PM)100% (Mar 17, 5:00 AM)30.53 "Hg (Mar 17, 5:00 AM)
Low27 °F (Mar 27, 5:00 AM)16% (Mar 27, 2:00 PM)29.80 "Hg (Mar 19, 1:00 PM)
Average41 °F76%30.13 "Hg
* Reported Mar 15 7:00 AM — Mar 30 7:00 AM, Fukushima, Weather by CustomWeather, © 2015

Note: Actual official high and low records may vary slightly from our data, if they occured in-between our weather recording intervals... More about our weather records

Advertising

Fukushima weather history for previous 24 hours

 ConditionsComfort  
Time TempWeatherWind HumidityBarometerVisibility
7:00 AM
Mon, Mar 30
44 °FFog.No wind99%30.12 "Hg4 mi
5:00 AM40 °FDuststorm.2 mph100%30.08 "Hg1 mi
4:00 AM41 °FFog.2 mph100%30.05 "Hg2 mi
3:00 AM42 °FQuite cool.2 mph100%30.04 "Hg1 mi
2:00 AM43 °FQuite cool.2 mph96%30.03 "Hg7 mi
1:00 AM45 °FCool.2 mph96%30.01 "Hg7 mi
12:00 AM46 °FCool.1 mph95%30.00 "Hg7 mi
11:00 PM
Sun, Mar 29
46 °FCool.3 mph93%30.00 "Hg10 mi
10:00 PM47 °FLight rain. Overcast.6 mph90%30.01 "Hg12 mi
9:00 PM50 °FLight rain. Overcast.3 mph88%30.00 "Hg12 mi
8:00 PM51 °FCool.5 mph85%29.99 "Hg12 mi
7:00 PM51 °FLight rain. Overcast.7 mph84%29.98 "Hg12 mi
6:00 PM53 °FCool.6 mph75%29.96 "Hg12 mi
5:00 PM56 °FCool.6 mph62%29.94 "Hg12 mi
4:00 PM59 °FRefreshingly cool.8 mph48%29.91 "Hg12 mi
3:00 PM61 °FRefreshingly cool.8 mph41%29.90 "Hg12 mi
2:00 PM60 °FRefreshingly cool.6 mph38%29.93 "Hg12 mi
1:00 PM59 °FRefreshingly cool.3 mph37%29.94 "Hg12 mi
11:00 AM55 °FRefreshingly cool.2 mph41%29.99 "Hg12 mi
10:00 AM50 °FCool.2 mph50%30.02 "Hg12 mi
9:00 AM46 °FCool.1 mph59%30.06 "Hg12 mi
8:00 AM42 °FQuite cool.3 mph72%30.08 "Hg12 mi
Weather by CustomWeather, © 2015

See weather overviewHow to use our weather pages